RYR29GX LIME-EBCI

Flight info

Callsign RYR29GX
Flight time N/A
Altitude 36000
Route LEGLO1PXPEPAG1D/28 PEPAG N851 UTAVO DCT ROLSA DCT LOKTA DCT TEDGO L608 MISGI Z104 GESLO N852 LNO
Aircraft B738/M-SDE3FGIJ1LRWY/SB1

Departure

Time 2026-04-30 14:46
Airport Il Caravaggio International Airport (LIME)

Arrival

Time N/A
Airport Brussels South Charleroi Airport (EBCI)
Time Latitude Longitude Altitude Speed Heading
2026-04-30 14:31 45.66593 9.70394 786 ft 0 kts 195°
2026-04-30 14:35 45.66585 9.70391 786 ft 4 kts 195°
2026-04-30 14:36 45.66564 9.70383 786 ft 0 kts 195°
2026-04-30 14:36 45.66554 9.70392 786 ft 6 kts 146°
2026-04-30 14:36 45.66561 9.70448 786 ft 7 kts 24°
2026-04-30 14:37 45.66610 9.70468 786 ft 7 kts 14°
2026-04-30 14:37 45.66643 9.70507 786 ft 7 kts 81°
2026-04-30 14:37 45.66633 9.70589 786 ft 11 kts 104°
2026-04-30 14:37 45.66609 9.70724 786 ft 17 kts 104°
2026-04-30 14:38 45.66575 9.70899 786 ft 19 kts 105°
2026-04-30 14:38 45.66566 9.70946 786 ft 0 kts 105°
2026-04-30 14:40 45.66565 9.70952 786 ft 2 kts 105°
2026-04-30 14:40 45.66552 9.71022 786 ft 12 kts 105°
2026-04-30 14:40 45.66517 9.71167 786 ft 17 kts 110°
2026-04-30 14:40 45.66482 9.71321 786 ft 16 kts 104°
2026-04-30 14:41 45.66454 9.71470 786 ft 15 kts 106°
2026-04-30 14:41 45.66440 9.71617 786 ft 15 kts 84°
2026-04-30 14:41 45.66463 9.71755 786 ft 14 kts 76°
2026-04-30 14:41 45.66466 9.71890 786 ft 13 kts 101°
2026-04-30 14:42 45.66444 9.72017 786 ft 13 kts 104°
2026-04-30 14:42 45.66421 9.72139 786 ft 13 kts 104°
2026-04-30 14:42 45.66398 9.72269 786 ft 14 kts 104°
2026-04-30 14:42 45.66383 9.72352 786 ft 5 kts 105°
2026-04-30 14:43 45.66381 9.72359 786 ft 0 kts 105°
2026-04-30 14:43 45.66377 9.72380 786 ft 5 kts 105°
2026-04-30 14:44 45.66383 9.72453 786 ft 11 kts 54°
2026-04-30 14:44 45.66454 9.72435 786 ft 12 kts 307°
2026-04-30 14:44 45.66483 9.72313 786 ft 8 kts 285°
2026-04-30 14:44 45.66484 9.72311 786 ft 0 kts 285°
2026-04-30 14:45 45.66493 9.72259 786 ft 24 kts 284°
2026-04-30 14:45 45.66602 9.71666 786 ft 98 kts 284°
2026-04-30 14:45 45.66834 9.70423 791 ft 158 kts 285°
2026-04-30 14:45 45.67147 9.68811 1313 ft 171 kts 284°
2026-04-30 14:46 45.67243 9.67145 2101 ft 173 kts 248°
2026-04-30 14:46 45.66517 9.65835 2860 ft 168 kts 221°
2026-04-30 14:46 45.65665 9.64657 3666 ft 172 kts 222°
2026-04-30 14:46 45.64762 9.63379 4185 ft 196 kts 224°
2026-04-30 14:47 45.63750 9.61925 4518 ft 220 kts 225°
2026-04-30 14:47 45.62620 9.60287 4847 ft 240 kts 225°
2026-04-30 14:47 45.61429 9.58559 5446 ft 245 kts 225°
2026-04-30 14:47 45.60251 9.56878 6552 ft 233 kts 226°
2026-04-30 14:48 45.59100 9.55298 7357 ft 231 kts 218°
2026-04-30 14:48 45.57615 9.54497 7971 ft 230 kts 179°
2026-04-30 14:48 45.56091 9.55030 8627 ft 228 kts 146°
2026-04-30 14:48 45.55009 9.56638 9206 ft 227 kts 113°
2026-04-30 14:49 45.54683 9.58881 9443 ft 243 kts 81°
2026-04-30 14:49 45.55320 9.61169 9729 ft 261 kts 52°
2026-04-30 14:49 45.56784 9.62830 10130 ft 278 kts 23°
2026-04-30 14:49 45.58718 9.63396 10656 ft 299 kts 358°
2026-04-30 14:50 45.62577 9.60423 11373 ft 341 kts 314°
2026-04-30 14:50 45.64202 9.57926 12158 ft 344 kts 315°
2026-04-30 14:51 45.67552 9.53015 13857 ft 347 kts 316°
2026-04-30 14:51 45.69246 9.50537 14597 ft 349 kts 316°
2026-04-30 14:51 45.72667 9.45501 15967 ft 356 kts 316°
2026-04-30 14:52 45.74398 9.42940 16613 ft 360 kts 316°
2026-04-30 14:52 45.77921 9.37715 17923 ft 369 kts 316°
2026-04-30 14:52 45.79714 9.35051 18556 ft 373 kts 317°
2026-04-30 14:53 45.83352 9.29633 19655 ft 380 kts 317°
2026-04-30 14:53 45.85189 9.26891 20222 ft 383 kts 317°
2026-04-30 14:54 45.88909 9.21334 21329 ft 389 kts 317°
2026-04-30 14:54 45.92664 9.15715 22413 ft 396 kts 318°
2026-04-30 14:55 45.96543 9.10016 23347 ft 402 kts 324°
2026-04-30 14:55 45.98887 9.07858 23789 ft 399 kts 339°
2026-04-30 14:55 46.04194 9.06024 24760 ft 393 kts 357°
2026-04-30 14:56 46.09681 9.05285 25592 ft 399 kts 357°
2026-04-30 14:56 46.15248 9.04430 26389 ft 405 kts 357°
2026-04-30 14:57 46.18055 9.03999 26759 ft 407 kts 358°
2026-04-30 14:57 46.23720 9.03238 27536 ft 411 kts 358°
2026-04-30 14:58 46.29436 9.02483 28238 ft 415 kts 358°
2026-04-30 14:58 46.32322 9.02095 28538 ft 419 kts 358°
2026-04-30 14:58 46.38148 9.01304 29239 ft 422 kts 358°
2026-04-30 14:59 46.44025 9.00506 29901 ft 426 kts 358°
2026-04-30 15:00 46.52850 8.99318 31179 ft 422 kts 358°
2026-04-30 15:00 46.58679 8.98530 31941 ft 420 kts 358°
2026-04-30 15:01 46.64477 8.97746 32705 ft 417 kts 357°
2026-04-30 15:01 46.66388 8.97487 32934 ft 417 kts 357°
2026-04-30 15:01 46.73131 8.96573 33716 ft 415 kts 357°
2026-04-30 15:02 46.76007 8.96182 34000 ft 416 kts 357°
2026-04-30 15:02 46.78893 8.95790 34211 ft 418 kts 357°
2026-04-30 15:03 46.87564 8.94606 35068 ft 416 kts 356°
2026-04-30 15:03 46.93342 8.93816 35523 ft 417 kts 356°
2026-04-30 15:04 46.99122 8.93024 35968 ft 418 kts 356°
2026-04-30 15:04 47.07824 8.91828 36216 ft 424 kts 356°
2026-04-30 15:06 47.22354 8.89821 36217 ft 416 kts 356°
2026-04-30 15:07 47.32820 8.90018 36228 ft 410 kts 14°
2026-04-30 15:08 47.43987 8.93825 36223 ft 411 kts 14°
2026-04-30 15:09 47.57915 8.98480 36238 ft 413 kts 14°
2026-04-30 15:10 47.69131 9.02224 36260 ft 413 kts 14°
2026-04-30 15:11 47.80618 9.02059 36276 ft 419 kts 352°
2026-04-30 15:11 47.86336 9.00370 36253 ft 419 kts 352°
2026-04-30 15:13 48.00613 8.96263 36259 ft 417 kts 352°
2026-04-30 15:14 48.20508 8.90589 36262 ft 417 kts 353°
2026-04-30 15:17 48.46235 8.83184 36270 ft 419 kts 353°
2026-04-30 15:19 48.69142 8.76524 36278 ft 419 kts 353°